Weather History for Jordan, MT

Change the Weather History Date:

Friday, April 4, 2014

  Actual Average Record
Temperature  
Mean Temperature 44 °F 40 °F  
Max Temperature 62 °F 54 °F 78 °F (1921)
Min Temperature 26 °F 28 °F 8 °F (1945)
Degree Days  
Heating Degree Days 21 24  
Month to date heating degree days 138 99  
Since 1 July heating degree days 7551 7201  
Cooling Degree Days 0 0  
Month to date cooling degree days 0 0  
Year to date cooling degree days 0 0  
Moisture  
Dew Point 26 °F    
Average Humidity 57    
Maximum Humidity 92    
Minimum Humidity 22    
Precipitation  
Precipitation 0.00 in 0.03 in 1.53 in (1955)
Month to date precipitation 0.00 0.10  
Year to date precipitation 1.27 1.10  
Snow  
Snow 0.00 in - - ()
Month to date snowfall 0.0  
Since 1 July snowfall 0.0  
Snow Depth 0.00 in    
Sea Level Pressure  
Sea Level Pressure 29.85 in    
Wind  
Wind Speed 10 mph (SW)    
Max Wind Speed 32 mph    
Max Gust Speed 41 mph    
T = Trace of Precipitation, MM = Missing Value Source: NWS Daily Summary

Daily Weather History Graph

Daily Weather History Graph

Search for Another Location

Airport:

Trip Planner

Search our weather history database for the weather conditions in past years. The results will help you decide how hot, cold, wet, or windy it might be!

Date:

Astronomy

Apr. 04, 2014 Rise Set
Actual Time 6:40 AM MDT 7:41 PM MDT
Civil Twilight 6:09 AM MDT 8:13 PM MDT
Nautical Twilight 5:32 AM MDT 8:50 PM MDT
Astronomical Twilight 4:52 AM MDT 9:30 PM MDT
Moon 9:45 AM MDT (4/4) 12:16 AM MDT (4/4)
Length of Visible Light 14h 03m
Length of Day
13h 01m
Waxing Crescent, 26% of the Moon is Illuminated
Apr 4
Waxing Crescent
Apr 7
First Quarter
Apr 15
Full
Apr 22
Last Quarter
Apr 29
New

Hourly Weather History & Observations

Time (MDT) Temp. Windchill Dew Point Humidity Pressure Visibility Wind Dir Wind Speed Gust Speed Precip Events Conditions
12:48 AM 28.0 °F 20.8 °F 26.1 °F 92% 30.07 in - East 6.9 mph - N/A   Unknown
1:48 AM 28.0 °F 22.8 °F 25.0 °F 88% 30.06 in - East 4.6 mph - N/A   Unknown
2:48 AM 28.0 °F 24.2 °F 25.0 °F 88% 30.03 in - ESE 3.5 mph - N/A   Unknown
3:48 AM 30.0 °F 22.4 °F 27.0 °F 88% 30.01 in - ESE 8.1 mph - N/A   Unknown
4:48 AM 30.0 °F 22.4 °F 27.0 °F 88% 29.98 in - East 8.1 mph - N/A   Unknown
5:48 AM 30.0 °F 25.2 °F 26.1 °F 85% 29.96 in - SE 4.6 mph - N/A   Unknown
6:48 AM 28.9 °F 21.9 °F 25.0 °F 85% 29.94 in - ESE 6.9 mph - N/A   Unknown
7:48 AM 32.0 °F 27.5 °F 27.0 °F 82% 29.94 in - ESE 4.6 mph - N/A   Unknown
8:48 AM 37.9 °F - 28.9 °F 70% 29.92 in - North - - N/A   Unknown
9:48 AM 45.0 °F 37.4 °F 27.0 °F 49% 29.88 in - SW 18.4 mph 24.2 mph N/A   Unknown
11:48 AM 55.0 °F - 28.0 °F 35% 29.82 in - SW 21.9 mph 29.9 mph N/A   Unknown
12:48 PM 59.0 °F - 24.1 °F 26% 29.79 in - SW 25.3 mph 34.5 mph N/A   Unknown
1:48 PM 60.1 °F - 21.9 °F 23% 29.77 in - WSW 16.1 mph 24.2 mph N/A   Unknown
3:26 PM 59.0 °F - 24.1 °F 26% 29.70 in - West 15.0 mph 23.0 mph N/A   Unknown
3:48 PM 57.9 °F - 23.0 °F 26% 29.73 in - NW 15.0 mph - N/A   Unknown
4:48 PM 57.9 °F - 24.1 °F 27% 29.73 in - SW 12.7 mph - N/A   Unknown
5:48 PM 55.9 °F - 24.1 °F 29% 29.74 in - WNW 10.4 mph - N/A   Unknown
6:24 PM 55.9 °F - 23.0 °F 28% 29.69 in - NW 11.5 mph - N/A   Unknown
6:48 PM 55.9 °F - 21.9 °F 27% 29.74 in - West 8.1 mph - N/A   Unknown
7:48 PM 48.9 °F - 28.0 °F 44% 29.75 in - West 5.8 mph - N/A   Unknown
8:48 PM 44.1 °F 39.5 °F 30.0 °F 58% 29.78 in - NW 8.1 mph - N/A   Unknown
9:48 PM 44.1 °F 40.8 °F 30.0 °F 58% 29.78 in - WNW 5.8 mph - N/A   Unknown
10:48 PM 43.0 °F - 30.0 °F 60% 29.75 in - Calm Calm - N/A   Unknown
11:48 PM 42.1 °F - 30.9 °F 65% 29.76 in - Calm Calm - N/A   Unknown